[[{"header":{"parameterUnit":"m.s-1","parameterCategory":1,"la1":30.2991,"la2":30.254,"lo1":-89.0895,"lo2":-89.0444,"dy":0.0017,"dx":0.0017,"nx":28,"ny":28,"refTime":"2023-11-14T09:00:00:Z","depth":0,"parameterNumber":2,"parameterNumberName":"U-component_of_WINDS"},"data":[0,0,0,0,0,0,0,0,0,0,0,0,0,0,0,0,0,0,0,0,0,0,0,0,0,0,0,0,0,0,0,0,0,0,0,0,0,0,0,0,0,0,0,0,0,0,0,0,0,0,0,0,0,0,0,0,0,0,-10.5819,-10.5821,0,-10.6022,-10.6025,-10.6027,-10.5834,-10.5826,-10.5818,-10.5811,-10.602,-10.6033,-10.6045,0,0,0,0,0,0,0,0,0,0,0,0,0,-10.5263,-10.5274,-10.5818,-10.5821,-10.5824,-10.6022,-10.6025,-10.6028,-10.5835,-10.5826,-10.5816,-10.5807,-10.6016,-10.6031,-10.6046,0,0,0,0,0,0,0,0,0,0,0,0,0,-10.5489,-10.5278,-10.5818,-10.5751,-10.5747,-10.6021,-10.6025,-10.6028,-10.5837,-10.5825,-10.5814,-10.5803,-10.6011,-10.603,-10.6048,-10.6399,0,0,-10.6107,-10.6115,0,0,0,0,0,0,0,0,-10.5477,-10.551,-10.5759,-10.5757,-10.5753,-10.5891,-10.5905,-10.6153,-10.584,-10.5803,-10.5811,-10.5797,-10.5987,-10.6007,-10.6071,-10.6408,-10.6417,-10.6109,-10.612,-10.6129,-10.6134,0,0,0,0,0,0,0,-10.5461,-10.55,-10.5899,-10.5763,-10.5759,-10.5711,-10.5731,-10.5951,-10.5957,-10.5805,-10.5792,-10.5819,-10.5983,-10.6053,-10.6074,-10.642,-10.6108,-10.6125,-10.6137,-10.6144,-10.7056,-10.7068,0,0,0,0,0,0,-10.5453,-10.5488,-10.5892,-10.5905,-10.5583,-10.5731,-10.5752,-10.5858,-10.5954,-10.5958,-10.5828,-10.5809,-10.6026,-10.6052,-10.6081,-10.6498,-10.6128,-10.6146,-10.6157,-10.7044,-10.7059,-10.7073,0,0,0,0,0,0,-10.5442,-10.5491,-10.5884,-10.5693,-10.574,-10.5753,-10.5873,-10.5868,-10.5938,-10.5972,-10.5972,-10.5899,-10.6017,-10.6054,-10.6321,-10.6502,-10.6155,-10.6172,-10.7029,-10.7048,-10.7066,-10.7334,0,0,0,0,0,0,-10.5426,-10.5488,-10.5621,-10.5698,-10.5751,-10.6122,-10.5884,-10.5881,-10.5971,-10.5948,-10.6038,-10.6042,-10.6011,-10.6294,-10.634,-10.6522,-10.6187,-10.7013,-10.7037,-10.706,-10.7309,-10.736,-10.7404,0,0,0,0,0,-10.5407,-10.5688,-10.5629,-10.5678,-10.5917,-10.6133,-10.6163,-10.6122,-10.5987,-10.6121,-10.6143,-10.6039,-10.6475,-10.6323,-10.6373,-10.6564,-10.7001,-10.703,-10.7058,-10.7288,-10.735,-10.7403,0,0,0,0,0,0,-10.5632,-10.5697,-10.5632,-10.5946,-10.6036,-10.61,-10.6267,-10.6189,-10.6319,-10.6292,-10.6235,-10.6258,-10.6541,-10.6578,-10.6408,-10.6908,-10.6716,-10.6756,-10.6873,-10.6933,-10.6979,-10.6964,-10.6203,0,0,0,0,0,-10.5718,-10.5888,-10.5935,-10.6208,-10.6256,-10.6255,-10.6347,-10.6308,-10.6399,-10.6435,-10.6476,-10.6569,-10.6726,-10.6831,-10.6978,-10.7313,-10.7331,-10.747,-10.7517,-10.7555,-10.7591,-10.7772,-10.7835,-10.7167,-10.7167,-10.7166,0,0,-10.5898,-10.5954,-10.6065,-10.6254,-10.6319,-10.6497,-10.6288,-10.6484,-10.6615,-10.6465,-10.672,-10.6754,-10.6853,-10.7157,-10.7292,-10.7197,-10.7779,-10.7592,-10.7622,-10.7637,-10.7808,-10.7872,-10.7928,-10.7186,-10.7183,-10.718,0,0,-10.6316,-10.6376,-10.6609,-10.6679,-10.678,-10.6777,-10.6834,-10.6911,-10.6928,-10.7183,-10.7074,-10.7229,-10.7502,-10.7577,-10.7651,-10.8099,-10.8009,-10.8149,-10.8395,-10.8573,-10.8626,-10.8672,-10.8833,-10.8891,-10.8184,-10.8185,-10.8185,0,-10.6526,-10.6789,-10.674,-10.6945,-10.7032,-10.6904,-10.7141,-10.7211,-10.7355,-10.7418,-10.7309,-10.7649,-10.7706,-10.8026,-10.8136,-10.82,-10.8263,-10.8138,-10.8622,-10.8668,-10.8711,-10.8863,-10.8924,-10.8201,-10.8199,-10.8197,-10.8196,0,-10.7044,-10.7228,-10.7405,-10.7548,-10.7654,-10.7874,-10.7858,-10.7972,-10.7924,-10.7934,-10.8196,-10.826,-10.8418,-10.8491,-10.8446,-10.8806,-10.8743,-10.863,-10.8435,-10.8791,-10.8934,-10.8992,-10.8224,-10.8218,-10.8214,-10.821,0,0,-10.7609,-10.7722,-10.7788,-10.7852,-10.7954,-10.8096,-10.831,-10.8465,-10.8564,-10.8668,-10.8847,-10.9081,-10.8976,-10.9061,-10.9023,-10.9179,-10.9531,-10.9045,-10.9046,-10.9134,-10.9932,-11.0018,-11.0086,-10.9471,-10.9482,-10.9491,-10.9924,0,-10.8031,-10.8404,-10.8366,-10.8721,-10.889,-10.8772,-10.8959,-10.9042,-10.9057,-10.9203,-10.9218,-10.9386,-10.9234,-10.9285,-10.9434,-10.9456,-10.969,-10.9424,-10.9637,-10.9646,-10.9617,-11.016,-11.0252,-11.0657,-10.9979,-10.9989,-10.9995,0,-10.8573,-10.8697,-10.9069,-10.9147,-10.9216,-10.9385,-10.9524,-10.9666,-10.9758,-10.9757,-10.9853,-10.9788,-11.0004,-10.9805,-11.0102,-10.9922,-11.0007,-11.0032,-11.0046,-11.0065,-10.9843,-11.0195,-11.0785,-11.0847,-11.0082,-11.0075,-11.0069,0,-10.895,-10.9209,-10.9466,-10.9524,-10.962,-10.9742,-10.9788,-10.9868,-10.9964,-11.0086,-11.0147,-11.0293,-11.0373,-11.0487,-11.0464,-11.0321,-11.0768,-11.0567,-11.0774,-11.0776,-11.0874,-11.0869,-11.1488,-11.0929,-11.0928,-11.0926,-11.0925,0,-10.9426,-10.9658,-10.9636,-10.9794,-11.0051,-11.0005,-11.0261,-11.0292,-11.0365,-11.0527,-11.0433,-11.0587,-11.0546,-11.0699,-11.0682,-11.0931,-11.0968,-11.0974,-11.0967,-11.0983,-11.0983,-11.1038,-11.101,-11.0943,-11.0939,-11.0936,-11.0933,0,-10.989,-10.9885,-11.0156,-11.0226,-11.0249,-11.0435,-11.0494,-11.0643,-11.065,-11.0856,-11.0902,-11.0913,-11.1088,-11.1076,-11.1273,-11.1261,-11.157,-11.1529,-11.1539,-11.1531,-11.1739,-11.172,-11.2417,-11.2506,-11.1888,-11.1894,-11.1899,0,-11.0195,-11.0371,-11.046,-11.0561,-11.0616,-11.0781,-11.0878,-11.084,-11.0946,-11.1065,-11.12,-11.1366,-11.1497,-11.1782,-11.1808,-11.1958,-11.1921,-11.2155,-11.1943,-11.1954,-11.1925,-11.1916,-11.1933,-11.2197,-11.2203,-11.2209,-11.2214,0,-11.0736,-11.0725,-11.0869,-11.1014,-11.1133,-11.1245,-11.1346,-11.1435,-11.1407,-11.1531,-11.1709,-11.1811,-11.2012,-11.2179,-11.2322,-11.2368,-11.2289,-11.228,-11.2336,-11.2355,-11.2354,-11.2358,-11.1654,-11.2264,-11.2259,-11.2256,-11.2253,-11.2251,-11.113,-11.1281,-11.1368,-11.1532,-11.1605,-11.1703,-11.1846,-11.1871,-11.2019,-11.218,-11.2148,-11.2349,-11.2437,-11.2621,-11.2682,-11.2838,-11.2754,-11.2836,-11.2856,-11.2877,-11.2902,-11.2329,-11.2864,-11.2863,-11.2861,-11.286,-11.2859,0,-11.1667,-11.1717,-11.1869,-11.2014,-11.2144,-11.2056,-11.2165,-11.2279,-11.2456,-11.2545,-11.2676,-11.2881,-11.3043,-11.3082,-11.3236,-11.3354,-11.3321,-11.3396,-11.3387,-11.34,-11.2967,-11.2904,-11.342,-11.342,-11.342,-11.342,-11.342,-11.342,-11.1962,-11.2214,-11.2213,-11.2501,-11.2548,-11.2744,-11.2814,-11.2903,-11.2974,-11.3207,-11.3341,-11.3365,-11.3435,-11.3594,-11.3738,-11.3745,-11.3807,-11.3898,-11.3891,-11.3486,-11.343,-11.3376,-11.3316,-11.3911,-11.3912,-11.431,-11.4313,-11.4316]},{"header":{"parameterUnit":"m.s-1","parameterCategory":1,"la1":30.2991,"la2":30.254,"lo1":-89.0895,"lo2":-89.0444,"dy":0.0017,"dx":0.0017,"nx":28,"ny":28,"refTime":"2023-11-14T09:00:00:Z","depth":0,"parameterNumber":3,"parameterNumberName":"V-component_of_WINDS"},"data":[0,0,0,0,0,0,0,0,0,0,0,0,0,0,0,0,0,0,0,0,0,0,0,0,0,0,0,0,0,0,0,0,0,0,0,0,0,0,0,0,0,0,0,0,0,0,0,0,0,0,0,0,0,0,0,0,0,0,-4.0496,-4.0493,0,-4.0272,-4.0269,-4.0267,-4.0187,-4.0188,-4.0189,-4.019,-3.9952,-3.9945,-3.9938,0,0,0,0,0,0,0,0,0,0,0,0,0,-4.0843,-4.0837,-4.0496,-4.0493,-4.049,-4.0272,-4.0269,-4.0266,-4.0187,-4.0188,-4.0189,-4.019,-3.9954,-3.9946,-3.9937,0,0,0,0,0,0,0,0,0,0,0,0,0,-4.0663,-4.0835,-4.0496,-4.0425,-4.0416,-4.0273,-4.0269,-4.0265,-4.0187,-4.0188,-4.019,-4.0191,-3.9957,-3.9946,-3.9936,-3.9844,0,0,-3.9903,-3.9899,0,0,0,0,0,0,0,0,-4.0673,-4.065,-4.0438,-4.043,-4.042,-4.0259,-4.0304,-4.0124,-4.0187,-4.0274,-4.019,-4.0191,-4.0052,-4.0034,-3.9989,-3.9833,-3.9823,-3.9902,-3.9896,-3.9891,-3.9888,0,0,0,0,0,0,0,-4.0686,-4.0659,-4.0407,-4.0435,-4.0424,-4.04,-4.0376,-4.027,-4.0158,-4.0266,-4.026,-4.0235,-4.0047,-3.9999,-3.9983,-3.982,-3.9902,-3.9893,-3.9886,-3.9882,-3.957,-3.9568,0,0,0,0,0,0,-4.0712,-4.067,-4.0414,-4.04,-4.0552,-4.0393,-4.0366,-4.0309,-4.0159,-4.0138,-4.0234,-4.0232,-4.0017,-3.9995,-3.9974,-3.9852,-3.9891,-3.9881,-3.9875,-3.9572,-3.957,-3.9567,0,0,0,0,0,0,-4.0719,-4.069,-4.0423,-4.0533,-4.0498,-4.0386,-4.0323,-4.0304,-4.0256,-4.0135,-4.0114,-4.0206,-4.0017,-3.9989,-3.9876,-3.9842,-3.9876,-3.9867,-3.9574,-3.9571,-3.9569,-3.961,0,0,0,0,0,0,-4.073,-4.0693,-4.066,-4.0533,-4.0492,-4.0333,-4.0321,-4.0299,-4.0239,-4.0234,-4.0103,-4.0083,-4.0016,-3.9893,-3.9866,-3.9828,-3.9858,-3.9576,-3.9573,-3.9569,-3.9611,-3.9609,-3.9607,0,0,0,0,0,-4.0742,-4.0681,-4.0659,-4.0629,-4.045,-4.0332,-4.0307,-4.0234,-4.0237,-4.02,-4.0122,-4.0087,-3.9852,-3.9882,-3.9851,-3.981,-3.9578,-3.9574,-3.957,-3.9612,-3.961,-3.9607,0,0,0,0,0,0,-4.0804,-4.0663,-4.0637,-4.0534,-4.0445,-4.0319,-4.0271,-4.0235,-4.0142,-4.0141,-4.0052,-4.0022,-3.9915,-3.9851,-3.9888,-3.971,-3.9712,-3.9702,-3.9755,-3.9752,-3.975,-3.9765,-3.9849,0,0,0,0,0,-4.0807,-4.0726,-4.0605,-4.0525,-4.0482,-4.0384,-4.033,-4.0281,-4.0185,-4.0147,-4.006,-3.9965,-3.9868,-3.9807,-3.9713,-3.9603,-3.9569,-3.9558,-3.9557,-3.9556,-3.9546,-3.9476,-3.9468,-3.9554,-3.9554,-3.9554,0,0,-4.0809,-4.0722,-4.0676,-4.0535,-4.0461,-4.0375,-4.0353,-4.0265,-4.0198,-4.0132,-4.0019,-3.9953,-3.984,-3.9727,-3.9672,-3.967,-3.9515,-3.955,-3.955,-3.9541,-3.9471,-3.9463,-3.9455,-3.9551,-3.9551,-3.9552,0,0,-4.0769,-4.0698,-4.062,-4.0546,-4.0434,-4.0369,-4.035,-4.0227,-4.018,-4.0067,-4.0014,-3.9932,-3.977,-3.969,-3.9628,-3.9553,-3.9514,-3.9525,-3.9513,-3.9445,-3.9438,-3.9432,-3.9399,-3.9389,-3.9516,-3.9516,-3.9516,0,-4.0785,-4.0657,-4.0584,-4.0496,-4.0433,-4.0371,-4.0288,-4.0219,-4.0081,-4.0036,-4.0037,-3.9828,-3.9749,-3.9613,-3.9594,-3.9548,-3.9519,-3.9537,-3.9446,-3.9439,-3.9431,-3.9398,-3.9387,-3.9518,-3.9518,-3.9518,-3.9517,0,-4.0679,-4.0591,-4.0541,-4.041,-4.0341,-4.0257,-4.0166,-4.0105,-4.0061,-3.9994,-3.9874,-3.9777,-3.9658,-3.9623,-3.958,-3.9478,-3.9479,-3.9465,-3.9464,-3.9426,-3.9393,-3.938,-3.952,-3.9519,-3.9519,-3.9519,0,0,-4.0673,-4.0501,-4.0483,-4.042,-4.0291,-4.0218,-4.0128,-4.0014,-3.996,-3.9866,-3.9784,-3.9647,-3.963,-3.956,-3.9506,-3.9448,-3.9386,-3.9439,-3.9434,-3.9427,-3.926,-3.9269,-3.9256,-3.9362,-3.9359,-3.9357,-3.9267,0,-4.0613,-4.0452,-4.0381,-4.025,-4.0163,-4.0101,-4.0021,-3.993,-3.9864,-3.9777,-3.9703,-3.9604,-3.9594,-3.955,-3.949,-3.9407,-3.935,-3.9413,-3.9278,-3.9274,-3.9303,-3.924,-3.925,-3.917,-3.9255,-3.9253,-3.9251,0,-4.0521,-4.0427,-4.0288,-4.0163,-4.0124,-4.0054,-3.994,-3.986,-3.9753,-3.9708,-3.9628,-3.9576,-3.9472,-3.9482,-3.9335,-3.9379,-3.9319,-3.9269,-3.9264,-3.9245,-3.9257,-3.9213,-3.9144,-3.9129,-3.9232,-3.9233,-3.9235,0,-4.0524,-4.0362,-4.0257,-4.0205,-4.0059,-4.001,-3.9945,-3.984,-3.9774,-3.9673,-3.9627,-3.9516,-3.9454,-3.9366,-3.9283,-3.9299,-3.9141,-3.9145,-3.9095,-3.9097,-3.9061,-3.9064,-3.8976,-3.9033,-3.9033,-3.9033,-3.9033,0,-4.0461,-4.0377,-4.0255,-4.019,-4.0091,-4.0008,-3.9911,-3.9842,-3.9747,-3.9663,-3.9603,-3.9524,-3.9421,-3.9328,-3.9262,-3.9145,-3.9119,-3.9076,-3.9058,-3.9078,-3.9083,-3.9034,-3.9035,-3.903,-3.9031,-3.9031,-3.9032,0,-4.0447,-4.0363,-4.0242,-4.0112,-4.0077,-4.001,-3.9895,-3.9826,-3.9756,-3.965,-3.962,-3.9508,-3.9395,-3.9304,-3.9156,-3.9111,-3.8986,-3.897,-3.9023,-3.9013,-3.8965,-3.8968,-3.8838,-3.8813,-3.8893,-3.8893,-3.8892,0,-4.0411,-4.0345,-4.0207,-4.0146,-4.0083,-3.9988,-3.9919,-3.9833,-3.9763,-3.9632,-3.9577,-3.9459,-3.936,-3.918,-3.9083,-3.8967,-3.8943,-3.8906,-3.8925,-3.8945,-3.8934,-3.8937,-3.8926,-3.8902,-3.8902,-3.8902,-3.8901,0,-4.0354,-4.0314,-4.022,-4.0108,-4.0028,-3.9935,-3.9841,-3.9795,-3.969,-3.9613,-3.9497,-3.942,-3.9266,-3.9147,-3.902,-3.8949,-3.8904,-3.8896,-3.8877,-3.8894,-3.8925,-3.89,-3.901,-3.8899,-3.8899,-3.8899,-3.8899,-3.8899,-4.0324,-4.0259,-4.015,-4.0044,-3.9964,-3.9876,-3.9802,-3.9722,-3.9624,-3.9494,-3.9448,-3.9326,-3.9212,-3.9038,-3.8965,-3.8864,-3.8861,-3.8835,-3.8827,-3.8821,-3.8819,-3.8946,-3.8842,-3.8842,-3.8842,-3.8842,-3.8841,0,-4.0258,-4.0184,-4.0088,-3.9957,-3.9871,-3.9841,-3.9733,-3.9662,-3.9556,-3.9456,-3.9359,-3.922,-3.9103,-3.8996,-3.8872,-3.8811,-3.8787,-3.8781,-3.8782,-3.8764,-3.8833,-3.8859,-3.8802,-3.8802,-3.8802,-3.8802,-3.8802,-3.8802,-4.0214,-4.01,-4.0047,-3.989,-3.9815,-3.9696,-3.9636,-3.9551,-3.947,-3.9319,-3.9221,-3.9153,-3.9047,-3.8914,-3.8802,-3.8773,-3.8727,-3.8725,-3.869,-3.8755,-3.876,-3.8765,-3.8788,-3.8717,-3.8717,-3.8627,-3.8626,-3.8626]}]]